owner,sensor,date,latitude,longitude,vertical_datum,direction_of_sea_water_velocity,sea_water_speed,upward_sea_water_velocity,qcFlag 
TABS,ioos:station:wmo:42045:1,2003-07-01T00:00:00Z,26.2168,-96.4998,2.0,186.0620354,21.39967289,-99999.0,'11111222,11111222,99999999' 
TABS,ioos:station:wmo:42045:1,2003-07-01T00:30:00Z,26.2168,-96.4998,2.0,185.1047187,22.02737388,-99999.0,'11111222,11111222,99999999' 
TABS,ioos:station:wmo:42045:1,2003-07-01T01:00:00Z,26.2168,-96.4998,2.0,189.8614116,23.58853959,-99999.0,'11111222,11111222,99999999' 
TABS,ioos:station:wmo:42045:1,2003-07-01T01:30:00Z,26.2168,-96.4998,2.0,194.7179871,23.025538,-99999.0,'11111222,11111222,99999999' 
TABS,ioos:station:wmo:42045:1,2003-07-01T02:00:00Z,26.2168,-96.4998,2.0,191.1846351,25.15783774,-99999.0,'11111222,11111222,99999999' 
TABS,ioos:station:wmo:42045:1,2003-07-01T02:30:00Z,26.2168,-96.4998,2.0,193.572282,27.56992746,-99999.0,'11111222,11111222,99999999' 
TABS,ioos:station:wmo:42045:1,2003-07-01T03:00:00Z,26.2168,-96.4998,2.0,197.1424281,26.36112668,-99999.0,'11111222,11111222,99999999' 
TABS,ioos:station:wmo:42045:1,2003-07-01T03:30:00Z,26.2168,-96.4998,2.0,193.0715768,23.9198265,-99999.0,'11111222,11111222,99999999' 
TABS,ioos:station:wmo:42045:1,2003-07-01T04:00:00Z,26.2168,-96.4998,2.0,187.4260097,19.11029565,-99999.0,'11111222,11111222,99999999' 
TABS,ioos:station:wmo:42045:1,2003-07-01T04:30:00Z,26.2168,-96.4998,2.0,187.9557836,24.20296263,-99999.0,'11111222,11111222,99999999' 
TABS,ioos:station:wmo:42045:1,2003-07-01T05:00:00Z,26.2168,-96.4998,2.0,195.2466517,24.45062371,-99999.0,'11111222,11111222,99999999' 
TABS,ioos:station:wmo:42045:1,2003-07-01T05:30:00Z,26.2168,-96.4998,2.0,194.5923098,22.98133373,-99999.0,'11111222,11111222,99999999' 
TABS,ioos:station:wmo:42045:1,2003-07-01T06:00:00Z,26.2168,-96.4998,2.0,196.5895171,24.06159804,-99999.0,'11111222,11111222,99999999' 
TABS,ioos:station:wmo:42045:1,2003-07-01T06:30:00Z,26.2168,-96.4998,2.0,194.6489039,21.31282478,-99999.0,'11111222,11111222,99999999' 
TABS,ioos:station:wmo:42045:1,2003-07-01T07:00:00Z,26.2168,-96.4998,2.0,198.9881781,21.60568907,-99999.0,'11111222,11111222,99999999' 
TABS,ioos:station:wmo:42045:1,2003-07-01T07:30:00Z,26.2168,-96.4998,2.0,188.0264622,13.32049924,-99999.0,'11111222,11111222,99999999' 
TABS,ioos:station:wmo:42045:1,2003-07-01T08:00:00Z,26.2168,-96.4998,2.0,195.0737216,11.65089696,-99999.0,'11111222,11111222,99999999' 
TABS,ioos:station:wmo:42045:1,2003-07-01T08:30:00Z,26.2168,-96.4998,2.0,181.0698424,13.92242795,-99999.0,'11111222,11111222,99999999' 
TABS,ioos:station:wmo:42045:1,2003-07-01T09:00:00Z,26.2168,-96.4998,2.0,186.4633516,11.28171086,-99999.0,'11111222,11111222,99999999' 
TABS,ioos:station:wmo:42045:1,2003-07-01T09:30:00Z,26.2168,-96.4998,2.0,192.9101446,11.72643595,-99999.0,'11111222,11111222,99999999' 
TABS,ioos:station:wmo:42045:1,2003-07-01T10:00:00Z,26.2168,-96.4998,2.0,193.0414462,15.51006447,-99999.0,'11111222,11111222,99999999' 
TABS,ioos:station:wmo:42045:1,2003-07-01T10:30:00Z,26.2168,-96.4998,2.0,192.6850534,17.07682933,-99999.0,'11111222,11111222,99999999' 
TABS,ioos:station:wmo:42045:1,2003-07-01T11:00:00Z,26.2168,-96.4998,2.0,193.1250026,19.06813572,-99999.0,'11111222,11111222,99999999' 
TABS,ioos:station:wmo:42045:1,2003-07-01T11:30:00Z,26.2168,-96.4998,2.0,191.209161,24.58907888,-99999.0,'11111222,11111222,99999999' 
TABS,ioos:station:wmo:42045:1,2003-07-01T12:00:00Z,26.2168,-96.4998,2.0,194.2610595,23.46307738,-99999.0,'11111222,11111222,99999999' 
TABS,ioos:station:wmo:42045:1,2003-07-01T12:30:00Z,26.2168,-96.4998,2.0,198.7831054,24.44169593,-99999.0,'11111222,11111222,99999999' 
TABS,ioos:station:wmo:42045:1,2003-07-01T13:00:00Z,26.2168,-96.4998,2.0,191.567888,23.93621733,-99999.0,'11111222,11111222,99999999' 
TABS,ioos:station:wmo:42045:1,2003-07-01T13:30:00Z,26.2168,-96.4998,2.0,184.1825214,25.63828777,-99999.0,'11111222,11111222,99999999' 
TABS,ioos:station:wmo:42045:1,2003-07-01T14:00:00Z,26.2168,-96.4998,2.0,184.455382,26.25936024,-99999.0,'11111222,11111222,99999999' 
TABS,ioos:station:wmo:42045:1,2003-07-01T14:30:00Z,26.2168,-96.4998,2.0,184.999053,26.04909595,-99999.0,'11111222,11111222,99999999' 
TABS,ioos:station:wmo:42045:1,2003-07-01T15:00:00Z,26.2168,-96.4998,2.0,186.9711458,26.36491798,-99999.0,'11111222,11111222,99999999' 
TABS,ioos:station:wmo:42045:1,2003-07-01T15:30:00Z,26.2168,-96.4998,2.0,185.0071469,24.40313504,-99999.0,'11111222,11111222,99999999' 
TABS,ioos:station:wmo:42045:1,2003-07-01T16:00:00Z,26.2168,-96.4998,2.0,185.5615205,25.27900512,-99999.0,'11111222,11111222,99999999' 
TABS,ioos:station:wmo:42045:1,2003-07-01T16:30:00Z,26.2168,-96.4998,2.0,184.6724314,26.1469023,-99999.0,'11111222,11111222,99999999' 
TABS,ioos:station:wmo:42045:1,2003-07-01T17:00:00Z,26.2168,-96.4998,2.0,180.58932,26.24138906,-99999.0,'11111222,11111222,99999999' 
TABS,ioos:station:wmo:42045:1,2003-07-01T17:30:00Z,26.2168,-96.4998,2.0,174.667341,25.1789694,-99999.0,'11111222,11111222,99999999' 
TABS,ioos:station:wmo:42045:1,2003-07-01T18:00:00Z,26.2168,-96.4998,2.0,178.7142369,25.40639486,-99999.0,'11111222,11111222,99999999' 
TABS,ioos:station:wmo:42045:1,2003-07-01T18:30:00Z,26.2168,-96.4998,2.0,178.6353578,26.8776208,-99999.0,'11111222,11111222,99999999' 
TABS,ioos:station:wmo:42045:1,2003-07-01T19:00:00Z,26.2168,-96.4998,2.0,181.0695009,28.92504105,-99999.0,'11111222,11111222,99999999' 
TABS,ioos:station:wmo:42045:1,2003-07-01T19:30:00Z,26.2168,-96.4998,2.0,184.2231866,29.32964541,-99999.0,'11111222,11111222,99999999' 
TABS,ioos:station:wmo:42045:1,2003-07-01T20:00:00Z,26.2168,-96.4998,2.0,187.1148709,28.66070655,-99999.0,'11111222,11111222,99999999' 
TABS,ioos:station:wmo:42045:1,2003-07-01T20:30:00Z,26.2168,-96.4998,2.0,183.2018026,27.21248427,-99999.0,'11111222,11111222,99999999' 
TABS,ioos:station:wmo:42045:1,2003-07-01T21:00:00Z,26.2168,-96.4998,2.0,193.4040536,29.2467246,-99999.0,'11111222,11111222,99999999' 
TABS,ioos:station:wmo:42045:1,2003-07-01T21:30:00Z,26.2168,-96.4998,2.0,195.5161656,27.88634971,-99999.0,'11111222,11111222,99999999' 
TABS,ioos:station:wmo:42045:1,2003-07-01T22:00:00Z,26.2168,-96.4998,2.0,195.63151,27.35164529,-99999.0,'11111222,11111222,99999999' 
TABS,ioos:station:wmo:42045:1,2003-07-01T22:30:00Z,26.2168,-96.4998,2.0,194.9883288,25.8287611,-99999.0,'11111222,11111222,99999999' 
TABS,ioos:station:wmo:42045:1,2003-07-01T23:00:00Z,26.2168,-96.4998,2.0,192.4200486,23.47951022,-99999.0,'11111222,11111222,99999999' 
TABS,ioos:station:wmo:42045:1,2003-07-01T23:30:00Z,26.2168,-96.4998,2.0,192.3142758,23.49047892,-99999.0,'11111222,11111222,99999999' 
TABS,ioos:station:wmo:42045:1,2003-07-02T00:00:00Z,26.2168,-96.4998,2.0,192.3668568,24.97964171,-99999.0,'11111222,11111222,99999999' 
TABS,ioos:station:wmo:42045:1,2003-07-02T00:30:00Z,26.2168,-96.4998,2.0,204.908226,24.90679024,-99999.0,'11111222,11111222,99999999' 
TABS,ioos:station:wmo:42045:1,2003-07-02T01:00:00Z,26.2168,-96.4998,2.0,214.1541953,26.00519948,-99999.0,'11111222,11111222,99999999' 
TABS,ioos:station:wmo:42045:1,2003-07-02T01:30:00Z,26.2168,-96.4998,2.0,220.9309821,25.6123193,-99999.0,'11111222,11111222,99999999' 
TABS,ioos:station:wmo:42045:1,2003-07-02T02:00:00Z,26.2168,-96.4998,2.0,227.5335379,23.83158618,-99999.0,'11111222,11111222,99999999' 
TABS,ioos:station:wmo:42045:1,2003-07-02T02:30:00Z,26.2168,-96.4998,2.0,235.037169,17.48568843,-99999.0,'11111222,11111222,99999999' 
TABS,ioos:station:wmo:42045:1,2003-07-02T03:00:00Z,26.2168,-96.4998,2.0,234.4741293,16.45252868,-99999.0,'11111222,11111222,99999999' 
TABS,ioos:station:wmo:42045:1,2003-07-02T03:30:00Z,26.2168,-96.4998,2.0,238.929133,16.56679209,-99999.0,'11111222,11111222,99999999' 
TABS,ioos:station:wmo:42045:1,2003-07-02T04:00:00Z,26.2168,-96.4998,2.0,245.9229231,18.33515749,-99999.0,'11111222,11111222,99999999' 
TABS,ioos:station:wmo:42045:1,2003-07-02T04:30:00Z,26.2168,-96.4998,2.0,243.3113738,10.39774014,-99999.0,'11111222,11111222,99999999' 
TABS,ioos:station:wmo:42045:1,2003-07-02T05:00:00Z,26.2168,-96.4998,2.0,236.6722162,11.39377023,-99999.0,'11111222,11111222,99999999' 
TABS,ioos:station:wmo:42045:1,2003-07-02T05:30:00Z,26.2168,-96.4998,2.0,244.6575268,13.41051826,-99999.0,'11111222,11111222,99999999' 
TABS,ioos:station:wmo:42045:1,2003-07-02T06:00:00Z,26.2168,-96.4998,2.0,243.8511986,11.68600017,-99999.0,'11111222,11111222,99999999' 
TABS,ioos:station:wmo:42045:1,2003-07-02T06:30:00Z,26.2168,-96.4998,2.0,248.774494,7.015924743,-99999.0,'11133222,11111222,99999999' 
TABS,ioos:station:wmo:42045:1,2003-07-02T07:00:00Z,26.2168,-96.4998,2.0,244.0068122,7.164719115,-99999.0,'11133222,11111222,99999999' 
TABS,ioos:station:wmo:42045:1,2003-07-02T07:30:00Z,26.2168,-96.4998,2.0,246.5811834,5.13280625,-99999.0,'11133222,11111222,99999999' 
TABS,ioos:station:wmo:42045:1,2003-07-02T08:00:00Z,26.2168,-96.4998,2.0,243.0091351,7.227170954,-99999.0,'11133222,11111222,99999999' 
TABS,ioos:station:wmo:42045:1,2003-07-02T08:30:00Z,26.2168,-96.4998,2.0,258.3917174,6.411123147,-99999.0,'11133222,11111222,99999999' 
TABS,ioos:station:wmo:42045:1,2003-07-02T09:00:00Z,26.2168,-96.4998,2.0,248.6725528,4.261854057,-99999.0,'11133222,11111222,99999999' 
TABS,ioos:station:wmo:42045:1,2003-07-02T09:30:00Z,26.2168,-96.4998,2.0,255.2856792,4.921392079,-99999.0,'11133222,11111222,99999999' 
TABS,ioos:station:wmo:42045:1,2003-07-02T10:00:00Z,26.2168,-96.4998,2.0,270.7542675,0.760065787,-99999.0,'11133222,11111222,99999999' 
TABS,ioos:station:wmo:42045:1,2003-07-02T10:30:00Z,26.2168,-96.4998,2.0,278.1448533,5.646954932,-99999.0,'11133222,11111222,99999999' 
TABS,ioos:station:wmo:42045:1,2003-07-02T11:00:00Z,26.2168,-96.4998,2.0,279.9013717,2.791576615,-99999.0,'11133222,11111222,99999999' 
TABS,ioos:station:wmo:42045:1,2003-07-02T11:30:00Z,26.2168,-96.4998,2.0,347.0388389,1.292942381,-99999.0,'11133222,11111222,99999999' 
TABS,ioos:station:wmo:42045:1,2003-07-02T12:00:00Z,26.2168,-96.4998,2.0,312.4865113,2.901930392,-99999.0,'11133222,11111222,99999999' 
TABS,ioos:station:wmo:42045:1,2003-07-02T12:30:00Z,26.2168,-96.4998,2.0,353.4505014,2.71773803,-99999.0,'11133222,11111222,99999999' 
TABS,ioos:station:wmo:42045:1,2003-07-02T13:00:00Z,26.2168,-96.4998,2.0,351.9889976,2.726609616,-99999.0,'11133222,11111222,99999999' 
TABS,ioos:station:wmo:42045:1,2003-07-02T13:30:00Z,26.2168,-96.4998,2.0,21.10499969,6.109828148,-99999.0,'11133222,11111222,99999999' 
TABS,ioos:station:wmo:42045:1,2003-07-02T14:00:00Z,26.2168,-96.4998,2.0,21.66229932,7.639528781,-99999.0,'11133222,11111222,99999999' 
TABS,ioos:station:wmo:42045:1,2003-07-02T14:30:00Z,26.2168,-96.4998,2.0,34.12253327,7.718872975,-99999.0,'11133222,11111222,99999999' 
TABS,ioos:station:wmo:42045:1,2003-07-02T15:00:00Z,26.2168,-96.4998,2.0,54.36416184,6.779572258,-99999.0,'11133222,11111222,99999999' 
TABS,ioos:station:wmo:42045:1,2003-07-02T15:30:00Z,26.2168,-96.4998,2.0,49.26638246,7.509067852,-99999.0,'11133222,11111222,99999999' 
TABS,ioos:station:wmo:42045:1,2003-07-02T16:00:00Z,26.2168,-96.4998,2.0,57.63843541,6.819098181,-99999.0,'11133222,11111222,99999999' 
TABS,ioos:station:wmo:42045:1,2003-07-02T16:30:00Z,26.2168,-96.4998,2.0,86.78647117,6.600378777,-99999.0,'11133222,11111222,99999999' 
TABS,ioos:station:wmo:42045:1,2003-07-02T17:00:00Z,26.2168,-96.4998,2.0,104.5344211,4.462824218,-99999.0,'11133222,11111222,99999999' 
TABS,ioos:station:wmo:42045:1,2003-07-02T17:30:00Z,26.2168,-96.4998,2.0,113.2334513,4.309477927,-99999.0,'11133222,11111222,99999999' 
TABS,ioos:station:wmo:42045:1,2003-07-02T18:00:00Z,26.2168,-96.4998,2.0,116.4308075,5.728821868,-99999.0,'11133222,11111222,99999999' 
TABS,ioos:station:wmo:42045:1,2003-07-02T18:30:00Z,26.2168,-96.4998,2.0,132.4323034,6.313731068,-99999.0,'11133222,11111222,99999999' 
TABS,ioos:station:wmo:42045:1,2003-07-02T19:00:00Z,26.2168,-96.4998,2.0,132.5735646,6.681077757,-99999.0,'11133222,11111222,99999999' 
TABS,ioos:station:wmo:42045:1,2003-07-02T19:30:00Z,26.2168,-96.4998,2.0,130.430217,7.632732145,-99999.0,'11133222,11111222,99999999' 
TABS,ioos:station:wmo:42045:1,2003-07-02T20:00:00Z,26.2168,-96.4998,2.0,146.6283033,8.980734937,-99999.0,'11133222,11111222,99999999' 
TABS,ioos:station:wmo:42045:1,2003-07-02T20:30:00Z,26.2168,-96.4998,2.0,140.3268583,8.30193351,-99999.0,'11133222,11111222,99999999' 
TABS,ioos:station:wmo:42045:1,2003-07-02T21:00:00Z,26.2168,-96.4998,2.0,231.0955316,1.464923206,-99999.0,'11133222,11111222,99999999' 
TABS,ioos:station:wmo:42045:1,2003-07-02T21:30:00Z,26.2168,-96.4998,2.0,112.3061529,1.264634335,-99999.0,'11133222,11111222,99999999' 
TABS,ioos:station:wmo:42045:1,2003-07-02T22:00:00Z,26.2168,-96.4998,2.0,144.9362615,1.966977377,-99999.0,'11133222,11111222,99999999' 
TABS,ioos:station:wmo:42045:1,2003-07-02T22:30:00Z,26.2168,-96.4998,2.0,137.090049,2.908143738,-99999.0,'11133222,11111222,99999999' 
TABS,ioos:station:wmo:42045:1,2003-07-02T23:00:00Z,26.2168,-96.4998,2.0,132.6466034,3.616365579,-99999.0,'11133222,11111222,99999999' 
TABS,ioos:station:wmo:42045:1,2003-07-02T23:30:00Z,26.2168,-96.4998,2.0,127.064363,2.356013582,-99999.0,'11133222,11111222,99999999' 
TABS,ioos:station:wmo:42045:1,2003-07-03T00:00:00Z,26.2168,-96.4998,2.0,143.2742388,4.766015107,-99999.0,'11133222,11111222,99999999' 
TABS,ioos:station:wmo:42045:1,2003-07-03T00:30:00Z,26.2168,-96.4998,2.0,162.5662697,3.437920883,-99999.0,'11133222,11111222,99999999' 
TABS,ioos:station:wmo:42045:1,2003-07-03T01:00:00Z,26.2168,-96.4998,2.0,194.002376,4.132807762,-99999.0,'11133222,11111222,99999999' 
TABS,ioos:station:wmo:42045:1,2003-07-03T01:30:00Z,26.2168,-96.4998,2.0,194.5793925,4.091760013,-99999.0,'11133222,11111222,99999999' 
TABS,ioos:station:wmo:42045:1,2003-07-03T02:00:00Z,26.2168,-96.4998,2.0,208.7314588,6.032752274,-99999.0,'11133222,11111222,99999999' 
TABS,ioos:station:wmo:42045:1,2003-07-03T02:30:00Z,26.2168,-96.4998,2.0,231.83203,3.090792779,-99999.0,'11133222,11111222,99999999' 
TABS,ioos:station:wmo:42045:1,2003-07-03T03:00:00Z,26.2168,-96.4998,2.0,200.0756274,4.748526087,-99999.0,'11133222,11111222,99999999' 
TABS,ioos:station:wmo:42045:1,2003-07-03T03:30:00Z,26.2168,-96.4998,2.0,230.0375171,5.153503663,-99999.0,'11133222,11111222,99999999' 
TABS,ioos:station:wmo:42045:1,2003-07-03T04:00:00Z,26.2168,-96.4998,2.0,211.5769787,4.965168678,-99999.0,'11133222,11111222,99999999' 
TABS,ioos:station:wmo:42045:1,2003-07-03T04:30:00Z,26.2168,-96.4998,2.0,224.8901325,3.698175226,-99999.0,'11133222,11111222,99999999' 
TABS,ioos:station:wmo:42045:1,2003-07-03T05:00:00Z,26.2168,-96.4998,2.0,234.7338939,5.144015941,-99999.0,'11133222,11111222,99999999' 
TABS,ioos:station:wmo:42045:1,2003-07-03T05:30:00Z,26.2168,-96.4998,2.0,243.6847878,5.120644491,-99999.0,'11133222,11111222,99999999' 
TABS,ioos:station:wmo:42045:1,2003-07-03T06:00:00Z,26.2168,-96.4998,2.0,246.4342383,3.076572769,-99999.0,'11133222,11111222,99999999' 
TABS,ioos:station:wmo:42045:1,2003-07-03T06:30:00Z,26.2168,-96.4998,2.0,249.0478036,2.880451354,-99999.0,'11133222,11111222,99999999' 
TABS,ioos:station:wmo:42045:1,2003-07-03T07:00:00Z,26.2168,-96.4998,2.0,228.3826822,2.875865087,-99999.0,'11133222,11111222,99999999' 
TABS,ioos:station:wmo:42045:1,2003-07-03T07:30:00Z,26.2168,-96.4998,2.0,232.4648577,2.06813926,-99999.0,'11133222,11111222,99999999' 
TABS,ioos:station:wmo:42045:1,2003-07-03T08:00:00Z,26.2168,-96.4998,2.0,277.1254206,1.451206395,-99999.0,'11133222,11111222,99999999' 
TABS,ioos:station:wmo:42045:1,2003-07-03T08:30:00Z,26.2168,-96.4998,2.0,303.6904097,0.468721666,-99999.0,'11133222,11111222,99999999' 
TABS,ioos:station:wmo:42045:1,2003-07-03T09:00:00Z,26.2168,-96.4998,2.0,288.1222388,1.157410904,-99999.0,'11133222,11111222,99999999' 
TABS,ioos:station:wmo:42045:1,2003-07-03T09:30:00Z,26.2168,-96.4998,2.0,21.94885822,1.444714505,-99999.0,'11133222,11111222,99999999' 
TABS,ioos:station:wmo:42045:1,2003-07-03T10:00:00Z,26.2168,-96.4998,2.0,313.405153,2.794154613,-99999.0,'11133222,11111222,99999999' 
TABS,ioos:station:wmo:42045:1,2003-07-03T10:30:00Z,26.2168,-96.4998,2.0,19.9346597,3.021009765,-99999.0,'11133222,11111222,99999999' 
TABS,ioos:station:wmo:42045:1,2003-07-03T11:00:00Z,26.2168,-96.4998,2.0,353.7291477,4.577390086,-99999.0,'11133222,11111222,99999999' 
TABS,ioos:station:wmo:42045:1,2003-07-03T11:30:00Z,26.2168,-96.4998,2.0,2.430397524,3.773393698,-99999.0,'11133222,11111222,99999999' 
TABS,ioos:station:wmo:42045:1,2003-07-03T12:00:00Z,26.2168,-96.4998,2.0,342.3158598,3.621118612,-99999.0,'11133222,11111222,99999999' 
TABS,ioos:station:wmo:42045:1,2003-07-03T12:30:00Z,26.2168,-96.4998,2.0,14.94363974,3.063608983,-99999.0,'11133222,11111222,99999999' 
TABS,ioos:station:wmo:42045:1,2003-07-03T13:00:00Z,26.2168,-96.4998,2.0,55.10614952,3.828276375,-99999.0,'11133222,11111222,99999999' 
TABS,ioos:station:wmo:42045:1,2003-07-03T13:30:00Z,26.2168,-96.4998,2.0,94.84010117,4.977750496,-99999.0,'11133222,11111222,99999999' 
TABS,ioos:station:wmo:42045:1,2003-07-03T14:00:00Z,26.2168,-96.4998,2.0,59.51230723,3.922307994,-99999.0,'11133222,11111222,99999999' 
TABS,ioos:station:wmo:42045:1,2003-07-03T14:30:00Z,26.2168,-96.4998,2.0,55.53360735,4.912321244,-99999.0,'11133222,11111222,99999999' 
TABS,ioos:station:wmo:42045:1,2003-07-03T15:00:00Z,26.2168,-96.4998,2.0,66.30823376,4.728519853,-99999.0,'11133222,11111222,99999999' 
TABS,ioos:station:wmo:42045:1,2003-07-03T15:30:00Z,26.2168,-96.4998,2.0,96.03875587,5.037955935,-99999.0,'11133222,11111222,99999999' 
TABS,ioos:station:wmo:42045:1,2003-07-03T16:00:00Z,26.2168,-96.4998,2.0,81.26183142,5.463414683,-99999.0,'11133222,11111222,99999999' 
TABS,ioos:station:wmo:42045:1,2003-07-03T16:30:00Z,26.2168,-96.4998,2.0,95.40875533,7.744481906,-99999.0,'11133222,11111222,99999999' 
TABS,ioos:station:wmo:42045:1,2003-07-03T17:00:00Z,26.2168,-96.4998,2.0,94.92006414,6.995777298,-99999.0,'11133222,11111222,99999999' 
TABS,ioos:station:wmo:42045:1,2003-07-03T17:30:00Z,26.2168,-96.4998,2.0,99.74882367,9.862418567,-99999.0,'11133222,11111222,99999999' 
TABS,ioos:station:wmo:42045:1,2003-07-03T18:00:00Z,26.2168,-96.4998,2.0,107.5552783,12.56520991,-99999.0,'11111222,11111222,99999999' 
TABS,ioos:station:wmo:42045:1,2003-07-03T18:30:00Z,26.2168,-96.4998,2.0,115.4886978,13.5708548,-99999.0,'11111222,11111222,99999999' 
TABS,ioos:station:wmo:42045:1,2003-07-03T19:00:00Z,26.2168,-96.4998,2.0,114.6063494,15.17835301,-99999.0,'11111222,11111222,99999999' 
TABS,ioos:station:wmo:42045:1,2003-07-03T19:30:00Z,26.2168,-96.4998,2.0,124.8067597,16.22251522,-99999.0,'11111222,11111222,99999999' 
TABS,ioos:station:wmo:42045:1,2003-07-03T20:00:00Z,26.2168,-96.4998,2.0,136.8150927,14.51004135,-99999.0,'11111222,11111222,99999999' 
TABS,ioos:station:wmo:42045:1,2003-07-03T20:30:00Z,26.2168,-96.4998,2.0,151.281559,13.56909724,-99999.0,'11111222,11111222,99999999' 
TABS,ioos:station:wmo:42045:1,2003-07-03T21:00:00Z,26.2168,-96.4998,2.0,158.0475907,13.401679,-99999.0,'11111222,11111222,99999999' 
TABS,ioos:station:wmo:42045:1,2003-07-03T21:30:00Z,26.2168,-96.4998,2.0,175.0902393,14.02144429,-99999.0,'11111222,11111222,99999999' 
TABS,ioos:station:wmo:42045:1,2003-07-03T22:00:00Z,26.2168,-96.4998,2.0,182.4198169,15.39372924,-99999.0,'11111222,11111222,99999999' 
TABS,ioos:station:wmo:42045:1,2003-07-03T22:30:00Z,26.2168,-96.4998,2.0,197.9843043,15.28692252,-99999.0,'11111222,11111222,99999999' 
TABS,ioos:station:wmo:42045:1,2003-07-03T23:00:00Z,26.2168,-96.4998,2.0,207.3021917,17.02683177,-99999.0,'11111222,11111222,99999999' 
TABS,ioos:station:wmo:42045:1,2003-07-03T23:30:00Z,26.2168,-96.4998,2.0,212.3139465,16.51818695,-99999.0,'11111222,11111222,99999999' 
TABS,ioos:station:wmo:42045:1,2003-07-04T00:00:00Z,26.2168,-96.4998,2.0,218.6127393,19.13285394,-99999.0,'11111222,11111222,99999999' 
TABS,ioos:station:wmo:42045:1,2003-07-04T00:30:00Z,26.2168,-96.4998,2.0,225.3265863,18.59013986,-99999.0,'11111222,11111222,99999999' 
TABS,ioos:station:wmo:42045:1,2003-07-04T01:00:00Z,26.2168,-96.4998,2.0,229.7742727,21.49284765,-99999.0,'11111222,11111222,99999999' 
TABS,ioos:station:wmo:42045:1,2003-07-04T01:30:00Z,26.2168,-96.4998,2.0,234.5723938,19.30411873,-99999.0,'11111222,11111222,99999999' 
TABS,ioos:station:wmo:42045:1,2003-07-04T02:00:00Z,26.2168,-96.4998,2.0,253.0405835,14.36466846,-99999.0,'11111222,11111222,99999999' 
TABS,ioos:station:wmo:42045:1,2003-07-04T02:30:00Z,26.2168,-96.4998,2.0,250.1544542,14.90516689,-99999.0,'11111222,11111222,99999999' 
TABS,ioos:station:wmo:42045:1,2003-07-04T03:00:00Z,26.2168,-96.4998,2.0,247.4961032,16.66926513,-99999.0,'11111222,11111222,99999999' 
TABS,ioos:station:wmo:42045:1,2003-07-04T03:30:00Z,26.2168,-96.4998,2.0,257.4647794,20.64201783,-99999.0,'11111222,11111222,99999999' 
TABS,ioos:station:wmo:42045:1,2003-07-04T04:00:00Z,26.2168,-96.4998,2.0,268.8180001,15.0331966,-99999.0,'11111222,11111222,99999999' 
TABS,ioos:station:wmo:42045:1,2003-07-04T04:30:00Z,26.2168,-96.4998,2.0,278.8275889,12.90282527,-99999.0,'11111222,11111222,99999999' 
TABS,ioos:station:wmo:42045:1,2003-07-04T05:00:00Z,26.2168,-96.4998,2.0,283.5138572,13.82268064,-99999.0,'11111222,11111222,99999999' 
TABS,ioos:station:wmo:42045:1,2003-07-04T05:30:00Z,26.2168,-96.4998,2.0,289.5855744,12.91734493,-99999.0,'11111222,11111222,99999999' 
TABS,ioos:station:wmo:42045:1,2003-07-04T06:00:00Z,26.2168,-96.4998,2.0,292.94483,18.05875134,-99999.0,'11111222,11111222,99999999' 
TABS,ioos:station:wmo:42045:1,2003-07-04T06:30:00Z,26.2168,-96.4998,2.0,303.4285313,16.99064448,-99999.0,'11111222,11111222,99999999' 
TABS,ioos:station:wmo:42045:1,2003-07-04T07:00:00Z,26.2168,-96.4998,2.0,309.1600616,17.72014955,-99999.0,'11111222,11111222,99999999' 
TABS,ioos:station:wmo:42045:1,2003-07-04T07:30:00Z,26.2168,-96.4998,2.0,316.616819,23.06085861,-99999.0,'11111222,11111222,99999999' 
TABS,ioos:station:wmo:42045:1,2003-07-04T08:00:00Z,26.2168,-96.4998,2.0,324.6467097,22.06972814,-99999.0,'11111222,11111222,99999999' 
TABS,ioos:station:wmo:42045:1,2003-07-04T08:30:00Z,26.2168,-96.4998,2.0,327.3672867,25.25702477,-99999.0,'11111222,11111222,99999999' 
TABS,ioos:station:wmo:42045:1,2003-07-04T09:00:00Z,26.2168,-96.4998,2.0,334.2586271,29.56387153,-99999.0,'11111222,11111222,99999999' 
TABS,ioos:station:wmo:42045:1,2003-07-04T09:30:00Z,26.2168,-96.4998,2.0,335.212255,27.97772149,-99999.0,'11111222,11111222,99999999' 
TABS,ioos:station:wmo:42045:1,2003-07-04T10:00:00Z,26.2168,-96.4998,2.0,344.3213413,31.30481113,-99999.0,'11111222,11111222,99999999' 
TABS,ioos:station:wmo:42045:1,2003-07-04T10:30:00Z,26.2168,-96.4998,2.0,346.011147,35.36898217,-99999.0,'11111222,11111222,99999999' 
TABS,ioos:station:wmo:42045:1,2003-07-04T11:00:00Z,26.2168,-96.4998,2.0,348.5320097,31.23357488,-99999.0,'11111222,11111222,99999999' 
TABS,ioos:station:wmo:42045:1,2003-07-04T11:30:00Z,26.2168,-96.4998,2.0,349.637594,35.4685283,-99999.0,'11111222,11111222,99999999' 
TABS,ioos:station:wmo:42045:1,2003-07-04T12:00:00Z,26.2168,-96.4998,2.0,353.3601281,38.39756763,-99999.0,'11111222,11111222,99999999' 
TABS,ioos:station:wmo:42045:1,2003-07-04T12:30:00Z,26.2168,-96.4998,2.0,353.7050174,36.57051545,-99999.0,'11111222,11111222,99999999' 
TABS,ioos:station:wmo:42045:1,2003-07-04T13:00:00Z,26.2168,-96.4998,2.0,355.2288194,36.787487,-99999.0,'11111222,11111222,99999999' 
TABS,ioos:station:wmo:42045:1,2003-07-04T13:30:00Z,26.2168,-96.4998,2.0,5.913937517,36.20266565,-99999.0,'11111222,11111222,99999999' 
TABS,ioos:station:wmo:42045:1,2003-07-04T14:00:00Z,26.2168,-96.4998,2.0,4.313975544,38.28846824,-99999.0,'11111222,11111222,99999999' 
TABS,ioos:station:wmo:42045:1,2003-07-04T14:30:00Z,26.2168,-96.4998,2.0,9.508345116,39.04641597,-99999.0,'11111222,11111222,99999999' 
TABS,ioos:station:wmo:42045:1,2003-07-04T15:00:00Z,26.2168,-96.4998,2.0,9.711401862,37.46688271,-99999.0,'11111222,11111222,99999999' 
TABS,ioos:station:wmo:42045:1,2003-07-04T15:30:00Z,26.2168,-96.4998,2.0,15.41085686,36.50241225,-99999.0,'11111222,11111222,99999999' 
TABS,ioos:station:wmo:42045:1,2003-07-04T16:00:00Z,26.2168,-96.4998,2.0,19.56262623,33.74803698,-99999.0,'11111222,11111222,99999999' 